Home   Weather   Pärnu   Past weeks

Flag for Estonia Past Weather in Pärnu, Estonia — Yesterday and Last 2 Weeks

Now
61 °F

Fog.


Feels Like: 61 °F
Forecast: 60 / 75 °F
Wind: 1 mph from South

Location: Pjarnu

Current Time: Aug 18, 2017 at 4:30:48 am

Latest Report: Aug 18, 2017 at 3:00 am


Visibility: 1 mi

Pressure: 30.03 "Hg

Humidity: 96%

Dew Point: 60 °F

Location of PärnuLocation

Past Weather in Pärnu — Graph

°F

Pärnu Temperature Yesterday

Maximum temperature yesterday: 76 °F (at 2:00 pm)
Minimum temperature yesterday: 57 °F (at 6:00 am)
Average temperature yesterday: 66 °F

High & Low Weather Summary for the Past Weeks

 TemperatureHumidityPressure
High84 °F (Aug 12, 5:00 pm)99% (Aug 8, 6:00 am)30.36 "Hg (Aug 8, 6:00 am)
Low43 °F (Aug 15, 6:00 am)38% (Aug 15, 5:00 pm)29.53 "Hg (Aug 5, 2:00 am)
Average64 °F78%29.98 "Hg
* Reported Aug 3 2:00 am — Aug 18 2:00 am, Pärnu. Weather by CustomWeather, © 2017

Note: Actual official high and low records may vary slightly from our data, if they occured in-between our weather recording intervals... More about our weather records

Advertising

Pärnu Weather History for the Previous 24 Hours

Scroll right to see more
 ConditionsComfort  
Time TempWeatherWind HumidityBarometerVisibility
2:00 am
Fri, Aug 18
62 °FClear.2 mph95%30.04 "Hg6 mi
1:00 am64 °FPassing clouds.2 mph95%30.04 "Hg9 mi
12:00 am63 °FPassing clouds.1 mph93%30.05 "Hg7 mi
11:00 pm
Thu, Aug 17
64 °FRain showers. Overcast.2 mph88%30.04 "Hg13 mi
10:00 pm67 °FOvercast.2 mph86%30.06 "Hg15 mi
9:00 pm67 °FScattered clouds.2 mph83%30.05 "Hg17 mi
8:00 pm69 °FOvercast.2 mph77%30.05 "Hg16 mi
7:00 pm72 °FSunny.5 mph61%30.04 "Hg22 mi
6:00 pm72 °FSunny.3 mph64%30.05 "Hg22 mi
5:00 pm71 °FPassing clouds.5 mph68%30.06 "Hg16 mi
4:00 pm71 °FPartly sunny.5 mph67%30.05 "Hg22 mi
3:00 pm72 °FLight rain. Partly sunny.5 mph77%30.06 "Hg22 mi
2:00 pm76 °FPartly sunny.5 mph67%30.06 "Hg16 mi
1:00 pm72 °FOvercast.1 mph75%30.07 "Hg19 mi
12:00 pm71 °FPartly sunny.1 mph73%30.08 "Hg25 mi
11:00 am72 °FPassing clouds.2 mph71%30.08 "Hg22 mi
10:00 am68 °FPartly sunny.1 mph80%30.09 "Hg22 mi
9:00 am65 °FScattered clouds.1 mph83%30.08 "Hg19 mi
8:00 am62 °FPartly sunny.No wind88%30.09 "Hg22 mi
7:00 am59 °FSunny.2 mph94%30.08 "Hg15 mi
6:00 am57 °FOvercast.1 mph95%30.09 "Hg14 mi
5:00 am58 °FOvercast.No wind92%30.09 "Hg22 mi
4:00 am58 °FPassing clouds.1 mph90%30.09 "Hg22 mi
Weather by CustomWeather, © 2017

See weather overviewHow to use our weather pages